DW6368 Weather Reports


Display with metric or nautical units.
time (UTC)temp
F
wind
direction
speed
MPH
gust
MPH
rain 1hr
in
rain 24hr
in
rain mn
in
humidity
%
barometer
mb
20260905004303 78 252 3.0 7.0 0.00 0.00 0.00 69 1011.2
20260905003324 79 220 2.0 5.0 0.00 0.00 0.00 67 1011.1
20260905002324 80 218 2.0 5.0 0.00 0.00 0.00 66 1011.2
20260905001324 80 224 2.0 7.0 0.00 0.00 0.00 66 1011.1
20260905000303 81 214 2.0 5.0 0.00 0.00 0.00 65 1011.1
20260904235306 81 242 2.0 7.0 0.00 0.00 0.00 66 1011.1
20260904234303 81 227 2.0 6.0 0.00 0.00 0.00 66 1011.4
20260904233302 81 215 2.0 9.0 0.00 0.00 0.00 65 1011.3
20260904232306 81 205 2.0 6.0 0.00 0.00 0.00 65 1011.3
20260904231303 81 242 2.0 8.0 0.00 0.00 0.00 66 1011.3
20260904230304 81 223 2.0 6.0 0.00 0.00 0.00 64 1011.3
20260904225305 81 242 2.0 8.0 0.00 0.00 0.00 65 1011.4
20260904224302 82 224 4.0 7.0 0.00 0.00 0.00 65 1011.5
20260904223303 82 238 4.0 7.0 0.00 0.00 0.00 64 1011.6
20260904222306 82 225 3.0 7.0 0.00 0.00 0.00 65 1011.5
20260904221304 81 248 2.0 8.0 0.00 0.00 0.00 65 1011.4
20260904220303 82 198 2.0 10.0 0.00 0.00 0.00 65 1011.5
20260904215324 82 206 2.0 10.0 0.00 0.00 0.00 65 1011.5
20260904214303 82 202 2.0 9.0 0.00 0.00 0.00 66 1011.5
20260904213303 82 201 1.0 9.0 0.00 0.00 0.00 66 1011.6
20260904212306 82 244 3.0 7.0 0.00 0.00 0.00 65 1011.6
20260904211303 82 209 3.0 7.0 0.00 0.00 0.00 66 1011.7
20260904210302 81 228 2.0 6.0 0.00 0.00 0.00 67 1011.7
20260904205305 81 173 2.0 7.0 0.00 0.00 0.00 68 1011.7
20260904204303 80 180 2.0 9.0 0.00 0.00 0.00 68 1011.8
20260904203303 80 241 4.0 7.0 0.00 0.00 0.00 68 1011.9
20260904202305 80 198 1.0 11.0 0.00 0.00 0.00 69 1012.0
20260904201302 80 244 3.0 7.0 0.00 0.00 0.00 68 1012.1
20260904200303 80 237 3.0 7.0 0.00 0.00 0.00 68 1012.1
20260904195305 80 202 2.0 10.0 0.00 0.00 0.00 70 1012.2
20260904194302 80 242 3.0 10.0 0.00 0.00 0.00 69 1012.3
20260904193303 80 220 2.0 6.0 0.00 0.00 0.00 68 1012.4
20260904192324 80 217 3.0 10.0 0.00 0.00 0.00 68 1012.5
20260904191324 81 220 2.0 5.0 0.00 0.00 0.00 68 1012.6
20260904190302 81 176 2.0 5.0 0.00 0.00 0.00 67 1012.8
20260904185306 80 216 2.0 6.0 0.00 0.00 0.00 68 1012.9
20260904184302 80 181 2.0 7.0 0.00 0.00 0.00 68 1013.0
20260904183324 80 212 1.0 6.0 0.00 0.00 0.00 69 1012.9
20260904182306 79 154 1.0 5.0 0.00 0.00 0.00 69 1012.9
20260904181303 78 187 1.0 7.0 0.00 0.00 0.00 71 1013.0
20260904180302 77 219 2.0 6.0 0.00 0.00 0.00 72 1012.9
20260904175305 77 217 2.0 7.0 0.00 0.00 0.00 71 1013.0
20260904174303 77 245 3.0 7.0 0.00 0.00 0.00 71 1013.0
20260904173302 78 222 3.0 7.0 0.00 0.00 0.00 68 1012.9
20260904172305 79 223 2.0 7.0 0.00 0.00 0.00 68 1012.9
20260904171303 79 170 1.0 4.0 0.00 0.00 0.00 68 1012.8
20260904170303 78 212 2.0 5.0 0.00 0.00 0.00 71 1012.9
20260904165305 77 240 1.0 4.0 0.00 0.00 0.00 71 1012.7
20260904164302 77 211 1.0 5.0 0.00 0.00 0.00 72 1012.6
20260904163303 76 97 2.0 5.0 0.00 0.00 0.00 73 1012.4
20260904162306 75 35 1.0 2.0 0.00 0.00 0.00 73 1012.5
20260904161303 75 195 1.0 4.0 0.00 0.00 0.00 76 1012.4
20260904160303 74 143 2.0 5.0 0.00 0.00 0.00 76 1012.3
20260904155306 73 61 1.0 4.0 0.00 0.00 0.00 77 1012.2
20260904154302 74 167 2.0 4.0 0.00 0.00 0.00 78 1012.2
20260904153303 73 159 1.0 3.0 0.00 0.00 0.00 79 1012.3
20260904152306 72 70 2.0 4.0 0.00 0.00 0.00 81 1012.2
20260904151302 71 110 2.0 4.0 0.00 0.00 0.00 83 1012.3
20260904150303 70 108 1.0 4.0 0.00 0.00 0.00 85 1012.3
20260904145305 68 129 1.0 5.0 0.00 0.00 0.00 88 1012.3
20260904144303 67 137 2.0 5.0 0.00 0.00 0.00 90 1012.2
20260904143323 66 110 1.0 5.0 0.00 0.00 0.00 93 1012.1
20260904142306 65 98 2.0 4.0 0.00 0.00 0.00 95 1012.0
20260904141303 64 111 1.0 3.0 0.00 0.00 0.00 96 1011.8
20260904140302 64 105 1.0 2.0 0.00 0.00 0.00 96 1011.7
20260904135306 64 106 1.0 3.0 0.00 0.00 0.00 96 1011.6
20260904134303 63 73 1.0 2.0 0.00 0.00 0.00 97 1011.5
20260904133303 64 41 0.0 1.0 0.00 0.00 0.00 97 1011.6
20260904132306 64 30 0.0 2.0 0.00 0.00 0.00 97 1011.5
20260904131302 63 84 1.0 3.0 0.00 0.00 0.00 98 1011.5
20260904130303 63 103 1.0 3.0 0.00 0.00 0.00 98 1011.4
20260904125305 62 49 0.0 2.0 0.00 0.00 0.00 98 1011.4
20260904124303 62 35 0.0 1.0 0.00 0.00 0.00 98 1011.5
20260904123303 62 37 0.0 1.0 0.00 0.00 0.00 97 1011.4
20260904122306 62 34 0.0 1.0 0.00 0.00 0.00 97 1011.3
20260904121303 62 9 0.0 1.0 0.00 0.00 0.00 97 1011.1
20260904120303 62 51 0.0 1.0 0.00 0.00 0.00 97 1011.2
20260904115324 62 47 0.0 1.0 0.00 0.00 0.00 97 1011.2
20260904114303 62 23 0.0 1.0 0.00 0.00 0.00 97 1011.3
20260904113302 62 55 0.0 1.0 0.00 0.00 0.00 97 1011.2
20260904112323 62 39 0.0 1.0 0.00 0.00 0.00 97 1011.2
20260904111303 62 39 0.0 1.0 0.00 0.00 0.00 97 1011.2
20260904110304 62 51 0.0 1.0 0.00 0.00 0.00 97 1011.2
20260904105305 62 47 0.0 1.0 0.00 0.00 0.00 97 1011.3
20260904104302 62 20 0.0 1.0 0.00 0.00 0.00 96 1011.2
20260904103324 62 51 0.0 1.0 0.00 0.00 0.00 96 1011.1
20260904102306 63 34 0.0 1.0 0.00 0.00 0.00 96 1011.1
20260904101303 63 51 0.0 1.0 0.00 0.00 0.00 96 1011.0
20260904100324 63 35 0.0 1.0 0.00 0.00 0.00 97 1011.0
20260904095324 63 40 0.0 1.0 0.00 0.00 0.00 97 1011.1
20260904094303 63 51 0.0 1.0 0.00 0.00 0.00 96 1011.2
20260904093303 63 41 0.0 1.0 0.00 0.00 0.00 96 1011.2
20260904092306 63 9 0.0 1.0 0.00 0.00 0.00 96 1011.1
20260904091303 63 30 0.0 1.0 0.00 0.00 0.00 96 1011.1
20260904090302 63 51 0.0 1.0 0.00 0.00 0.00 95 1011.0
20260904085306 63 68 0.0 1.0 0.00 0.00 0.00 95 1011.0
20260904084303 63 25 0.0 1.0 0.00 0.00 0.00 95 1011.1
20260904083303 63 308 0.0 1.0 0.00 0.00 0.00 95 1011.1
20260904082305 63 51 0.0 1.0 0.00 0.00 0.00 95 1011.2
20260904081303 63 93 0.0 1.0 0.00 0.00 0.00 95 1011.3
20260904080324 63 51 0.0 1.0 0.00 0.00 0.00 94 1011.3
20260904075306 63 51 0.0 1.0 0.00 0.00 0.00 94 1011.3
20260904074324 64 9 0.0 1.0 0.00 0.00 0.00 94 1011.1
20260904073324 64 34 0.0 1.0 0.00 0.00 0.00 93 1011.2
20260904072324 64 51 0.0 1.0 0.00 0.00 0.00 93 1011.3
20260904071303 64 51 0.0 0.0 0.00 0.00 0.00 93 1011.1
20260904070304 64 265 0.0 1.0 0.00 0.00 0.00 93 1011.1
20260904065306 65 9 0.0 1.0 0.00 0.00 0.00 92 1011.1
20260904064303 65 51 0.0 1.0 0.00 0.00 0.00 92 1011.2
20260904063324 65 9 0.0 1.0 0.00 0.00 0.00 91 1011.3
20260904062306 65 265 0.0 1.0 0.00 0.00 0.00 91 1011.3
20260904061302 66 265 0.0 1.0 0.00 0.00 0.00 90 1011.2
20260904060303 66 34 0.0 1.0 0.00 0.00 0.00 90 1011.2
20260904055306 66 14 0.0 1.0 0.00 0.00 0.00 90 1011.1
20260904054323 67 46 0.0 1.0 0.00 0.00 0.00 89 1011.0
20260904053303 67 68 0.0 1.0 0.00 0.00 0.00 89 1011.1
20260904052306 67 51 0.0 1.0 0.00 0.00 0.00 89 1011.1
20260904051302 67 34 0.0 1.0 0.00 0.00 0.00 89 1011.2
20260904050303 68 9 0.0 1.0 0.00 0.00 0.00 88 1011.2
20260904045306 68 29 0.0 1.0 0.00 0.00 0.00 88 1011.2
20260904044303 68 29 0.0 2.0 0.00 0.00 0.00 87 1011.2
20260904043303 69 21 0.0 1.0 0.00 0.00 0.00 87 1011.1
20260904042306 69 55 0.0 1.0 0.00 0.00 0.00 86 1011.0
20260904041303 69 6 0.0 2.0 0.00 0.00 0.00 86 1011.0
20260904040303 70 302 0.0 3.0 0.00 0.00 0.00 85 1011.0
20260904035306 70 290 1.0 2.0 0.00 0.00 0.00 83 1010.8
20260904034303 70 289 1.0 6.0 0.00 0.00 0.00 83 1010.7
20260904033303 70 303 2.0 5.0 0.00 0.00 0.00 81 1010.6
20260904032305 70 316 1.0 3.0 0.00 0.00 0.00 79 1010.4
20260904031302 70 321 0.0 2.0 0.00 0.00 0.00 78 1010.4
20260904030303 70 316 0.0 1.0 0.00 0.00 0.00 80 1010.4
20260904025306 71 265 0.0 2.0 0.00 0.00 0.00 79 1010.3
20260904024324 71 228 0.0 4.0 0.00 0.00 0.00 79 1010.2
20260904023302 72 257 2.0 4.0 0.00 0.00 0.00 78 1010.2
20260904022323 73 219 1.0 4.0 0.00 0.00 0.00 77 1010.3
20260904021303 74 227 0.0 4.0 0.00 0.00 0.00 76 1010.2
20260904020302 74 210 1.0 5.0 0.00 0.00 0.00 74 1010.3
20260904015306 75 221 2.0 5.0 0.00 0.00 0.00 73 1010.3
20260904014302 76 230 2.0 6.0 0.00 0.00 0.00 73 1010.3
20260904013324 76 226 1.0 6.0 0.00 0.00 0.00 72 1010.2
20260904012306 76 208 2.0 5.0 0.00 0.00 0.00 72 1010.2
20260904011303 77 218 2.0 7.0 0.00 0.00 0.00 71 1010.3
20260904010303 77 239 1.0 6.0 0.00 0.00 0.00 72 1010.2
20260904005306 77 215 2.0 5.0 0.00 0.00 0.00 71 1010.3